Previsão horária em Ploske

Hoje, 28 Fevereiro, Domingo

Tempo Temperatura Precipitação Vento Pressão Humidade
00:00 0°C° 0.1 mm 4 m/s 751 mmHg 96%
01:00 0°C° 0.1 mm 4 m/s 752 mmHg 96%
02:00 0°C° 0.1 mm 4 m/s 752 mmHg 97%
03:00 0°C° 0.1 mm 4 m/s 752 mmHg 96%
04:00 0°C° 0.1 mm 4 m/s 752 mmHg 96%
05:00 -1°C° 0.1 mm 4 m/s 752 mmHg 96%
06:00 -1°C° 0.1 mm 4 m/s 752 mmHg 95%
07:00 -1°C° 0.1 mm 5 m/s 752 mmHg 95%
08:00 -1°C° 0.1 mm 5 m/s 753 mmHg 94%
09:00 -1°C° 0 mm 5 m/s 753 mmHg 93%
10:00 -1°C° 0 mm 4 m/s 753 mmHg 92%
11:00 0°C° 0 mm 4 m/s 753 mmHg 92%
12:00 0°C° 0.1 mm 4 m/s 753 mmHg 88%
13:00 0°C° 0.1 mm 5 m/s 753 mmHg 85%
14:00 0°C° 0.1 mm 5 m/s 753 mmHg 82%
15:00 0°C° 0 mm 5 m/s 753 mmHg 81%
16:00 0°C° 0 mm 5 m/s 753 mmHg 80%
17:00 0°C° 0 mm 5 m/s 753 mmHg 80%
18:00 -1°C° 0 mm 4 m/s 753 mmHg 82%
19:00 0°C° 0 mm 3 m/s 753 mmHg 84%
20:00 -1°C° 0 mm 3 m/s 753 mmHg 87%
21:00 -1°C° 0 mm 3 m/s 753 mmHg 88%
22:00 -1°C° 0 mm 2 m/s 753 mmHg 90%
23:00 -1°C° 0 mm 2 m/s 753 mmHg 92%

Amanhã, 1 Março, Segunda-feira

Tempo Temperatura Precipitação Vento Pressão Humidade
00:00 -2°C° 0 mm 2 m/s 754 mmHg 92%
01:00 -2°C° 0 mm 2 m/s 754 mmHg 92%
02:00 0°C° 0 mm 1 m/s 754 mmHg 93%
03:00 0°C° 0 mm 1 m/s 754 mmHg 93%
04:00 0°C° 0 mm 1 m/s 754 mmHg 93%
05:00 0°C° 0 mm 1 m/s 755 mmHg 94%
06:00 -2°C° 0 mm 2 m/s 755 mmHg 92%
07:00 -1°C° 0 mm 2 m/s 756 mmHg 90%
08:00 -1°C° 0 mm 2 m/s 756 mmHg 88%
09:00 +1°C° 0 mm 2 m/s 756 mmHg 82%
10:00 +2°C° 0 mm 2 m/s 757 mmHg 77%
11:00 +2°C° 0 mm 3 m/s 757 mmHg 71%
12:00 +2°C° 0 mm 3 m/s 757 mmHg 70%
13:00 +2°C° 0 mm 3 m/s 758 mmHg 68%
14:00 +2°C° 0 mm 3 m/s 758 mmHg 67%
15:00 +2°C° 0 mm 3 m/s 758 mmHg 68%
16:00 +2°C° 0 mm 2 m/s 758 mmHg 69%
17:00 +2°C° 0 mm 2 m/s 758 mmHg 70%
18:00 +2°C° 0 mm 2 m/s 759 mmHg 71%
19:00 +1°C° 0 mm 2 m/s 759 mmHg 72%
20:00 +1°C° 0 mm 2 m/s 760 mmHg 72%
21:00 +1°C° 0 mm 2 m/s 760 mmHg 73%
22:00 -1°C° 0 mm 2 m/s 760 mmHg 74%
23:00 +1°C° 0 mm 1 m/s 760 mmHg 74%

Depois de amanhã, 2 Março, Terça-feira

Tempo Temperatura Precipitação Vento Pressão Humidade
00:00 -1°C° 0 mm 2 m/s 760 mmHg 76%
01:00 -1°C° 0 mm 2 m/s 760 mmHg 77%
02:00 -1°C° 0 mm 2 m/s 759 mmHg 78%
03:00 -1°C° 0 mm 3 m/s 759 mmHg 81%
04:00 -1°C° 0 mm 3 m/s 758 mmHg 84%
05:00 -1°C° 0 mm 3 m/s 758 mmHg 87%
06:00 -2°C° 0 mm 4 m/s 758 mmHg 84%
07:00 -1°C° 0 mm 5 m/s 757 mmHg 82%
08:00 -1°C° 0 mm 5 m/s 757 mmHg 79%
09:00 -1°C° 0 mm 6 m/s 757 mmHg 77%
10:00 +2°C° 0 mm 6 m/s 756 mmHg 75%
11:00 +3°C° 0 mm 7 m/s 755 mmHg 73%
12:00 +3°C° 0 mm 7 m/s 755 mmHg 73%
13:00 +4°C° 0 mm 7 m/s 755 mmHg 73%
14:00 +4°C° 0 mm 7 m/s 754 mmHg 73%
15:00 +3°C° 0 mm 7 m/s 754 mmHg 75%
16:00 +3°C° 0 mm 6 m/s 754 mmHg 77%
17:00 +2°C° 0 mm 6 m/s 754 mmHg 80%
18:00 +2°C° 0 mm 6 m/s 754 mmHg 80%
19:00 +1°C° 0 mm 6 m/s 755 mmHg 80%
20:00 +1°C° 0 mm 6 m/s 755 mmHg 80%
21:00 0°C° 0 mm 5 m/s 755 mmHg 82%
22:00 0°C° 0 mm 4 m/s 755 mmHg 84%
23:00 +1°C° 0 mm 3 m/s 755 mmHg 86%

3 Março, Quarta-feira

Tempo Temperatura Precipitação Vento Pressão Humidade
00:00 0°C° 0 mm 4 m/s 755 mmHg 88%
01:00 -1°C° 0 mm 4 m/s 755 mmHg 90%
02:00 -1°C° 0 mm 5 m/s 755 mmHg 91%
03:00 0°C° 0 mm 5 m/s 755 mmHg 92%
04:00 0°C° 0 mm 5 m/s 755 mmHg 92%
05:00 0°C° 0 mm 5 m/s 755 mmHg 92%
06:00 0°C° 0 mm 5 m/s 755 mmHg 91%
07:00 +1°C° 0 mm 6 m/s 755 mmHg 90%
08:00 +1°C° 0 mm 6 m/s 755 mmHg 89%
09:00 +2°C° 0 mm 6 m/s 755 mmHg 80%
10:00 +3°C° 0 mm 6 m/s 756 mmHg 70%
11:00 +4°C° 0 mm 7 m/s 756 mmHg 61%
12:00 +4°C° 0 mm 6 m/s 756 mmHg 59%
13:00 +4°C° 0 mm 6 m/s 756 mmHg 57%
14:00 +5°C° 0 mm 6 m/s 756 mmHg 55%
15:00 +5°C° 0 mm 5 m/s 756 mmHg 57%
16:00 +5°C° 0 mm 4 m/s 756 mmHg 59%
17:00 +4°C° 0 mm 3 m/s 756 mmHg 61%
18:00 +3°C° 0 mm 3 m/s 757 mmHg 66%
19:00 +3°C° 0 mm 2 m/s 757 mmHg 71%
20:00 +2°C° 0 mm 2 m/s 758 mmHg 77%
21:00 +2°C° 0 mm 2 m/s 758 mmHg 80%
22:00 +2°C° 0 mm 1 m/s 758 mmHg 83%
23:00 +1°C° 0 mm 1 m/s 758 mmHg 87%

4 Março, Quinta-feira

Tempo Temperatura Precipitação Vento Pressão Humidade
00:00 +1°C° 0 mm 1 m/s 758 mmHg 87%
01:00 0°C° 0 mm 0 m/s 758 mmHg 87%
02:00 0°C° 0 mm 0 m/s 758 mmHg 87%
03:00 0°C° 0 mm 0 m/s 758 mmHg 88%
04:00 0°C° 0 mm 0 m/s 758 mmHg 88%
05:00 +1°C° 0 mm 1 m/s 757 mmHg 88%
06:00 +1°C° 0 mm 1 m/s 757 mmHg 85%
07:00 +2°C° 0 mm 1 m/s 757 mmHg 82%
08:00 +1°C° 0 mm 2 m/s 757 mmHg 79%
09:00 +3°C° 0 mm 2 m/s 757 mmHg 72%
10:00 +3°C° 0 mm 3 m/s 756 mmHg 65%
11:00 +5°C° 0 mm 4 m/s 756 mmHg 58%
12:00 +5°C° 0 mm 4 m/s 755 mmHg 58%
13:00 +6°C° 0 mm 4 m/s 755 mmHg 57%
14:00 +7°C° 0 mm 4 m/s 754 mmHg 56%
15:00 +7°C° 0 mm 4 m/s 753 mmHg 61%
16:00 +6°C° 0 mm 4 m/s 753 mmHg 65%
17:00 +6°C° 0 mm 4 m/s 752 mmHg 69%
18:00 +5°C° 0 mm 4 m/s 752 mmHg 72%
19:00 +5°C° 0 mm 5 m/s 752 mmHg 75%
20:00 +3°C° 0 mm 5 m/s 751 mmHg 79%
21:00 +2°C° 0 mm 5 m/s 751 mmHg 80%
22:00 +2°C° 0 mm 5 m/s 751 mmHg 82%
23:00 +2°C° 0 mm 5 m/s 751 mmHg 83%

5 Março, Sexta-feira

Tempo Temperatura Precipitação Vento Pressão Humidade
00:00 +1°C° 0 mm 5 m/s 750 mmHg 84%
01:00 +1°C° 0 mm 5 m/s 750 mmHg 86%
02:00 +1°C° 0 mm 5 m/s 749 mmHg 87%
03:00 0°C° 0 mm 5 m/s 749 mmHg 88%
04:00 0°C° 0 mm 5 m/s 749 mmHg 90%
05:00 0°C° 0 mm 5 m/s 748 mmHg 91%
06:00 +1°C° 0 mm 6 m/s 748 mmHg 91%
07:00 +1°C° 0 mm 6 m/s 748 mmHg 91%
08:00 0°C° 0 mm 7 m/s 748 mmHg 91%
09:00 +2°C° 0 mm 7 m/s 748 mmHg 87%
10:00 +3°C° 0 mm 7 m/s 747 mmHg 83%
11:00 +4°C° 0 mm 8 m/s 747 mmHg 79%
12:00 +6°C° 0 mm 7 m/s 747 mmHg 75%
13:00 +8°C° 0 mm 7 m/s 746 mmHg 70%
14:00 +9°C° 0 mm 7 m/s 746 mmHg 65%
15:00 +9°C° 0 mm 6 m/s 746 mmHg 67%
16:00 +8°C° 0 mm 5 m/s 745 mmHg 70%
17:00 +8°C° 0 mm 4 m/s 745 mmHg 72%
18:00 +7°C° 0 mm 4 m/s 745 mmHg 76%
19:00 +6°C° 0 mm 4 m/s 745 mmHg 81%
20:00 +5°C° 0 mm 4 m/s 745 mmHg 85%
21:00 +5°C° 0 mm 4 m/s 745 mmHg 87%
22:00 +5°C° 0 mm 4 m/s 745 mmHg 88%
23:00 +4°C° 0 mm 4 m/s 745 mmHg 90%
Mostrar mais

Necessitamos do seu Consentimento

A Meteoprog e os seus Fornecedores de Serviços podem armazenar e aceder a dados pessoais como cookies, identificadores do dispositivo ou outras tecnologias semelhantes existentes no seu dispositivo e processar estes dados para personalizar conteúdos e anúncios, assim como funcionalidades nas redes sociais e análise de tráfego.

  • Armazenar e/ou aceder a informações no seu dispositivo

    Os cookies, identificadores do dispositivo ou outras informações podem ser armazenados ou acedidos no seu dispositivo, para os fins acima indicados.

  • Anúncios e conteúdos personalizados, medição de anúncios e conteúdos, dados sobre o público-alvo e desenvolvimento de produtos

    Os anúncios e os conteúdos podem ser personalizados com base num perfil. Podem ser adicionados dados adicionais para uma maior personalização dos anúncios e dos conteúdos. A eficácia dos anúncios e dos conteúdos pode ser medida. Podem ser obtidas informações sobre o público que visualizou os anúncios e os conteúdos. Estes dados podem ser usados para desenvolver ou melhorar sistemas, softwares ou a experiência do utilizador.

Ao clicar em "Eu concordo”, permitirá o uso de cookies, identificadores do dispositivo e web beacons mencionados ou outras tecnologias semelhantes. As configurações do navegador do seu dispositivo podem ser alteradas.

Para certos fins, podem ser invocados interesses legítimos ao invés de consentimento. Pode ler mais informação sobre este assunto na nossa Política de Privacidade e Cookies.